Location: Newark
(40.9833°N, 0.0333°W)
Time: 16:49:40
(UTC+00:00)

Vanguard 3 - Visible Passes

Search period start: 21 October 2020 00:00
Search period end: 31 October 2020 00:00
Orbit: 508 x 3263 km, 33.3° (Epoch: 20 October)

Date Brightness Start Highest point End Pass type
(mag) Time Alt. Az. Time Alt. Az. Time Alt. Az.
21 Oct 11.5 04:42:06 10° S 04:55:42 25° SE 05:09:08 10° E visible
22 Oct 11.6 03:32:14 10° SSE 03:40:17 14° SE 03:48:38 10° ESE visible
22 Oct 11.2 05:37:07 10° SSW 05:53:56 39° SSE 06:09:46 10° E visible
23 Oct 11.3 04:23:54 10° S 04:37:58 28° SE 04:52:36 10° E visible
24 Oct 11.4 03:13:09 10° SSE 03:22:38 17° SE 03:32:52 10° E visible
24 Oct 11.1 05:19:23 10° SSW 05:36:11 42° SSE 05:52:59 10° E visible
25 Oct 11.2 04:06:03 10° SSW 04:20:13 31° SE 04:35:47 10° E visible
26 Oct 11.2 02:54:46 10° S 03:04:57 19° SE 03:16:29 10° E visible
26 Oct 10.9 05:01:52 10° SW 05:18:24 46° SSE 05:36:00 10° E visible
27 Oct 11.0 03:48:30 10° SSW 04:02:26 34° SE 04:18:43 10° E visible
28 Oct 11.0 02:36:54 10° S 02:47:16 21° SE 02:59:42 10° E visible
28 Oct 10.7 04:44:36 10° SW 05:00:37 49° SSE 05:18:52 10° E visible
29 Oct 10.8 03:32:17 13° SSW 03:44:42 36° SE 04:01:29 10° E visible
29 Oct 10.6 05:41:59 10° WSW 05:59:30 61° SSE 06:18:13 10° E visible
30 Oct 10.7 02:22:57 17° SSE 02:29:38 24° SE 02:42:37 10° E visible
30 Oct 10.5 04:27:33 10° SW 04:42:52 51° SSE 05:01:35 10° E visible
